STARLINK-35946

Last updated on Fri Dec 19 2025 00:02:05 GMT+0000 (Coordinated Universal Time)

1 66522U 25265G 25352.66667824 .00044509 00000+0 10679-2 0 9999 2 66522 43.0001 19.4255 0001717 283.9827 190.6796 15.40662427 5945
UTC large
Height (km)
Speed (km/s)
/
Latitude / Longitude
Inclination (degrees)
Orbital Period (minutes)
Azimuth
Elevation
Range (km)
Doppler Factor

Next 0 passes for location: London (51.5072 / 0.1276)

Sorry there are no passes over London.